| time (UTC) | temp C | wind direction | speed KPH | gust KPH | rain 1hr cm | rain 24hr cm | rain mn cm | humidity % | barometer mb |
| 20260505040107 | 15 | 149 | 0.0 | 4.8 | 0.00 | 0.00 | 0.00 | 72 | 1010.9 |
| 20260505035526 | 15 | 302 | 1.6 | 16.1 | 0.00 | 0.00 | 0.00 | 72 | 1010.7 |
| 20260505035034 | 15 | 291 | 8.0 | 16.1 | 0.00 | 0.00 | 0.00 | 71 | 1010.6 |
| 20260505034541 | 15 | 254 | 8.0 | 16.1 | 0.00 | 0.00 | 0.00 | 70 | 1010.5 |
| 20260505034028 | 15 | 265 | 9.7 | 22.5 | 0.00 | 0.00 | 0.00 | 69 | 1010.4 |
| 20260505033536 | 15 | 267 | 8.0 | 22.5 | 0.00 | 0.00 | 0.00 | 69 | 1010.5 |
| 20260505033035 | 16 | 247 | 9.7 | 20.9 | 0.00 | 0.00 | 0.00 | 68 | 1010.3 |
| 20260505032524 | 16 | 246 | 9.7 | 27.4 | 0.00 | 0.00 | 0.00 | 67 | 1010.3 |
| 20260505032028 | 16 | 293 | 14.5 | 22.5 | 0.00 | 0.00 | 0.00 | 67 | 1010.5 |
| 20260505031527 | 16 | 264 | 12.9 | 20.9 | 0.00 | 0.00 | 0.00 | 66 | 1010.4 |
| 20260505031035 | 16 | 268 | 9.7 | 22.5 | 0.00 | 0.00 | 0.00 | 66 | 1010.3 |
| 20260505030524 | 17 | 265 | 12.9 | 22.5 | 0.00 | 0.00 | 0.00 | 66 | 1010.4 |
| 20260505030040 | 17 | 279 | 11.3 | 20.9 | 0.00 | 0.00 | 0.00 | 66 | 1010.3 |
| 20260505025527 | 17 | 295 | 12.9 | 20.9 | 0.00 | 0.00 | 0.00 | 65 | 1010.3 |
| 20260505025027 | 17 | 290 | 11.3 | 20.9 | 0.00 | 0.00 | 0.00 | 64 | 1010.2 |
| 20260505024536 | 18 | 281 | 8.0 | 20.9 | 0.00 | 0.00 | 0.00 | 63 | 1010.1 |
| 20260505024023 | 18 | 284 | 9.7 | 22.5 | 0.00 | 0.00 | 0.00 | 63 | 1010.2 |
| 20260505023523 | 18 | 275 | 11.3 | 22.5 | 0.00 | 0.00 | 0.00 | 64 | 1010.2 |
| 20260505023029 | 18 | 276 | 12.9 | 33.8 | 0.00 | 0.00 | 0.00 | 64 | 1010.3 |
| 20260505022537 | 18 | 261 | 17.7 | 33.8 | 0.00 | 0.00 | 0.00 | 63 | 1010.2 |
| 20260505022044 | 18 | 243 | 14.5 | 29.0 | 0.00 | 0.00 | 0.00 | 64 | 1010.3 |
| 20260505021523 | 18 | 295 | 19.3 | 27.4 | 0.00 | 0.00 | 0.00 | 63 | 1010.4 |
| 20260505021033 | 18 | 276 | 17.7 | 25.7 | 0.00 | 0.00 | 0.00 | 63 | 1010.3 |
| 20260505020542 | 18 | 271 | 14.5 | 24.1 | 0.00 | 0.00 | 0.00 | 63 | 1010.2 |
| 20260505020120 | 18 | 269 | 14.5 | 29.0 | 0.00 | 0.00 | 0.00 | 64 | 1010.3 |
| 20260505015549 | 19 | 297 | 16.1 | 29.0 | 0.00 | 0.00 | 0.00 | 62 | 1010.3 |
| 20260505015027 | 19 | 262 | 14.5 | 22.5 | 0.00 | 0.00 | 0.00 | 62 | 1010.2 |
| 20260505014536 | 20 | 274 | 14.5 | 27.4 | 0.00 | 0.00 | 0.00 | 62 | 1010.2 |
| 20260505014040 | 20 | 248 | 17.7 | 29.0 | 0.00 | 0.00 | 0.00 | 61 | 1010.3 |
| 20260505013547 | 20 | 257 | 12.9 | 29.0 | 0.00 | 0.00 | 0.00 | 62 | 1010.2 |
| 20260505013026 | 20 | 271 | 14.5 | 24.1 | 0.00 | 0.00 | 0.00 | 63 | 1010.2 |
| 20260505012535 | 20 | 259 | 14.5 | 24.1 | 0.00 | 0.00 | 0.00 | 63 | 1010.3 |
| 20260505012043 | 20 | 250 | 11.3 | 27.4 | 0.00 | 0.00 | 0.00 | 62 | 1010.3 |
| 20260505011551 | 21 | 278 | 16.1 | 27.4 | 0.00 | 0.00 | 0.00 | 62 | 1010.3 |
| 20260505011029 | 21 | 289 | 16.1 | 25.7 | 0.00 | 0.00 | 0.00 | 61 | 1010.2 |
| 20260505010538 | 21 | 240 | 16.1 | 24.1 | 0.00 | 0.00 | 0.00 | 58 | 1010.3 |
| 20260505010056 | 21 | 269 | 12.9 | 24.1 | 0.00 | 0.00 | 0.00 | 55 | 1010.3 |
| 20260505005547 | 21 | 277 | 14.5 | 24.1 | 0.00 | 0.00 | 0.00 | 54 | 1010.3 |
| 20260505005026 | 22 | 297 | 14.5 | 24.1 | 0.00 | 0.00 | 0.00 | 52 | 1010.2 |
| 20260505004533 | 22 | 250 | 11.3 | 19.3 | 0.00 | 0.00 | 0.00 | 53 | 1010.3 |
| 20260505004102 | 22 | 289 | 11.3 | 19.3 | 0.00 | 0.00 | 0.00 | 52 | 1010.3 |
| 20260505003530 | 22 | 250 | 8.0 | 14.5 | 0.00 | 0.00 | 0.00 | 52 | 1010.2 |
| 20260505003054 | 22 | 268 | 6.4 | 14.5 | 0.00 | 0.00 | 0.00 | 53 | 1010.2 |
| 20260505002601 | 22 | 261 | 8.0 | 14.5 | 0.00 | 0.00 | 0.00 | 53 | 1010.3 |
| 20260505002049 | 22 | 304 | 6.4 | 14.5 | 0.00 | 0.00 | 0.00 | 54 | 1010.3 |
| 20260505001528 | 21 | 304 | 6.4 | 16.1 | 0.00 | 0.00 | 0.00 | 56 | 1010.3 |
| 20260505001036 | 21 | 288 | 9.7 | 16.1 | 0.00 | 0.00 | 0.00 | 55 | 1010.3 |
| 20260505000544 | 21 | 278 | 9.7 | 14.5 | 0.00 | 0.00 | 0.00 | 57 | 1010.4 |
| 20260505000104 | 21 | 267 | 4.8 | 12.9 | 0.00 | 0.00 | 0.00 | 57 | 1010.4 |
| 20260504235524 | 21 | 326 | 8.0 | 12.9 | 0.00 | 0.00 | 0.00 | 55 | 1010.4 |
| 20260504235032 | 21 | 260 | 8.0 | 14.5 | 0.00 | 0.00 | 0.00 | 56 | 1010.4 |
| 20260504234540 | 21 | 313 | 9.7 | 16.1 | 0.00 | 0.00 | 0.00 | 55 | 1010.4 |
| 20260504234049 | 21 | 266 | 4.8 | 17.7 | 0.00 | 0.00 | 0.00 | 57 | 1010.4 |
| 20260504233527 | 21 | 291 | 6.4 | 17.7 | 0.00 | 0.00 | 0.00 | 57 | 1010.5 |
| 20260504233035 | 21 | 288 | 11.3 | 16.1 | 0.00 | 0.00 | 0.00 | 55 | 1010.4 |
| 20260504232544 | 21 | 302 | 8.0 | 19.3 | 0.00 | 0.00 | 0.00 | 57 | 1010.5 |
| 20260504232048 | 21 | 259 | 12.9 | 19.3 | 0.00 | 0.00 | 0.00 | 56 | 1010.5 |
| 20260504231527 | 22 | 304 | 11.3 | 17.7 | 0.00 | 0.00 | 0.00 | 56 | 1010.5 |
| 20260504231034 | 22 | 326 | 8.0 | 16.1 | 0.00 | 0.00 | 0.00 | 57 | 1010.5 |
| 20260504230710 | 22 | 263 | 9.7 | 16.1 | 0.00 | 0.00 | 0.00 | 58 | 1010.5 |
| 20260504230113 | 22 | 301 | 11.3 | 22.5 | 0.00 | 0.00 | 0.00 | 57 | 1010.5 |
| 20260504225543 | 22 | 307 | 9.7 | 22.5 | 0.00 | 0.00 | 0.00 | 56 | 1010.5 |
| 20260504225031 | 22 | 259 | 9.7 | 20.9 | 0.00 | 0.00 | 0.00 | 57 | 1010.4 |
| 20260504224531 | 22 | 286 | 8.0 | 19.3 | 0.00 | 0.00 | 0.00 | 55 | 1010.5 |
| 20260504224040 | 23 | 328 | 9.7 | 17.7 | 0.00 | 0.00 | 0.00 | 53 | 1010.5 |
| 20260504223549 | 23 | 239 | 3.2 | 12.9 | 0.00 | 0.00 | 0.00 | 54 | 1010.5 |
| 20260504223035 | 24 | 287 | 3.2 | 11.3 | 0.00 | 0.00 | 0.00 | 55 | 1010.6 |
| 20260504222544 | 24 | 314 | 6.4 | 12.9 | 0.00 | 0.00 | 0.00 | 49 | 1010.6 |
| 20260504222046 | 23 | 271 | 6.4 | 12.9 | 0.00 | 0.00 | 0.00 | 53 | 1010.6 |
| 20260504221543 | 23 | 270 | 4.8 | 12.9 | 0.00 | 0.00 | 0.00 | 52 | 1010.6 |
| 20260504221032 | 24 | 278 | 6.4 | 12.9 | 0.00 | 0.00 | 0.00 | 50 | 1010.6 |
| 20260504220540 | 25 | 288 | 4.8 | 11.3 | 0.00 | 0.00 | 0.00 | 50 | 1010.6 |
| 20260504220058 | 25 | 248 | 6.4 | 9.7 | 0.00 | 0.00 | 0.00 | 53 | 1010.7 |
| 20260504215540 | 25 | 269 | 6.4 | 8.0 | 0.00 | 0.00 | 0.00 | 54 | 1010.6 |
| 20260504215028 | 25 | 217 | 3.2 | 4.8 | 0.00 | 0.00 | 0.00 | 54 | 1010.7 |
| 20260504214536 | 25 | 86 | 1.6 | 6.4 | 0.00 | 0.00 | 0.00 | 57 | 1010.7 |
| 20260504214106 | 24 | 85 | 3.2 | 8.0 | 0.00 | 0.00 | 0.00 | 56 | 1010.7 |
| 20260504213524 | 24 | 235 | 0.0 | 9.7 | 0.00 | 0.00 | 0.00 | 59 | 1010.7 |
| 20260504213032 | 23 | 136 | 3.2 | 9.7 | 0.00 | 0.00 | 0.00 | 61 | 1010.8 |
| 20260504212537 | 23 | 337 | 1.6 | 8.0 | 0.00 | 0.00 | 0.00 | 57 | 1010.8 |
| 20260504212036 | 23 | 72 | 4.8 | 8.0 | 0.00 | 0.00 | 0.00 | 59 | 1010.9 |
| 20260504211525 | 23 | 281 | 1.6 | 6.4 | 0.00 | 0.00 | 0.00 | 60 | 1010.9 |
| 20260504211033 | 23 | 53 | 3.2 | 6.4 | 0.00 | 0.00 | 0.00 | 57 | 1010.9 |
| 20260504210533 | 23 | 58 | 3.2 | 4.8 | 0.00 | 0.00 | 0.00 | 55 | 1010.9 |
| 20260504210118 | 23 | 238 | 1.6 | 8.0 | 0.00 | 0.00 | 0.00 | 55 | 1010.9 |
| 20260504205534 | 23 | 222 | 3.2 | 6.4 | 0.00 | 0.00 | 0.00 | 58 | 1011.0 |
| 20260504205041 | 23 | 147 | 1.6 | 4.8 | 0.00 | 0.00 | 0.00 | 54 | 1011.0 |
| 20260504204530 | 23 | 102 | 3.2 | 4.8 | 0.00 | 0.00 | 0.00 | 55 | 1011.0 |
| 20260504204028 | 23 | 241 | 1.6 | 4.8 | 0.00 | 0.00 | 0.00 | 55 | 1011.0 |
| 20260504203536 | 22 | 200 | 1.6 | 9.7 | 0.00 | 0.00 | 0.00 | 59 | 1011.1 |
| 20260504203045 | 22 | 257 | 4.8 | 9.7 | 0.00 | 0.00 | 0.00 | 57 | 1011.0 |
| 20260504202532 | 23 | 285 | 3.2 | 8.0 | 0.00 | 0.00 | 0.00 | 56 | 1011.1 |
| 20260504202041 | 23 | 101 | 3.2 | 8.0 | 0.00 | 0.00 | 0.00 | 59 | 1011.1 |
| 20260504201540 | 22 | 102 | 1.6 | 6.4 | 0.00 | 0.00 | 0.00 | 61 | 1011.2 |
| 20260504201025 | 22 | 197 | 3.2 | 8.0 | 0.00 | 0.00 | 0.00 | 64 | 1011.2 |
| 20260504200534 | 22 | 84 | 1.6 | 8.0 | 0.00 | 0.00 | 0.00 | 65 | 1011.3 |
| 20260504200052 | 22 | 148 | 1.6 | 9.7 | 0.00 | 0.00 | 0.00 | 66 | 1011.2 |
| 20260504195532 | 22 | 166 | 3.2 | 9.7 | 0.00 | 0.00 | 0.00 | 62 | 1011.2 |
| 20260504195038 | 22 | 231 | 4.8 | 6.4 | 0.00 | 0.00 | 0.00 | 64 | 1011.2 |
| 20260504194527 | 21 | 145 | 1.6 | 8.0 | 0.00 | 0.00 | 0.00 | 64 | 1011.2 |
| 20260504194051 | 21 | 82 | 3.2 | 8.0 | 0.00 | 0.00 | 0.00 | 65 | 1011.2 |
| 20260504193529 | 21 | 91 | 1.6 | 9.7 | 0.00 | 0.00 | 0.00 | 65 | 1011.3 |
| 20260504193037 | 21 | 69 | 3.2 | 8.0 | 0.00 | 0.00 | 0.00 | 64 | 1011.4 |
| 20260504192546 | 21 | 32 | 0.0 | 11.3 | 0.00 | 0.00 | 0.00 | 66 | 1011.4 |
| 20260504192024 | 21 | 224 | 8.0 | 11.3 | 0.00 | 0.00 | 0.00 | 65 | 1011.3 |
| 20260504191532 | 21 | 274 | 4.8 | 6.4 | 0.00 | 0.00 | 0.00 | 66 | 1011.3 |
| 20260504191040 | 21 | 205 | 1.6 | 6.4 | 0.00 | 0.00 | 0.00 | 69 | 1011.2 |
| 20260504190539 | 21 | 148 | 1.6 | 4.8 | 0.00 | 0.00 | 0.00 | 68 | 1011.2 |
| 20260504190058 | 21 | 111 | 3.2 | 8.0 | 0.00 | 0.00 | 0.00 | 69 | 1011.3 |
| 20260504185529 | 21 | 97 | 3.2 | 8.0 | 0.00 | 0.00 | 0.00 | 66 | 1011.3 |
| 20260504185058 | 21 | 94 | 1.6 | 8.0 | 0.00 | 0.00 | 0.00 | 70 | 1011.3 |
| 20260504184545 | 20 | 148 | 3.2 | 6.4 | 0.00 | 0.00 | 0.00 | 68 | 1011.3 |
| 20260504184054 | 20 | 162 | 3.2 | 8.0 | 0.00 | 0.00 | 0.00 | 68 | 1011.4 |
| 20260504183527 | 20 | 141 | 1.6 | 9.7 | 0.00 | 0.00 | 0.00 | 72 | 1011.4 |
| 20260504183036 | 20 | 254 | 6.4 | 9.7 | 0.00 | 0.00 | 0.00 | 69 | 1011.4 |
| 20260504182545 | 20 | 244 | 4.8 | 8.0 | 0.00 | 0.00 | 0.00 | 69 | 1011.4 |
| 20260504182054 | 20 | 235 | 4.8 | 9.7 | 0.00 | 0.00 | 0.00 | 67 | 1011.4 |
| 20260504181600 | 20 | 253 | 3.2 | 9.7 | 0.00 | 0.00 | 0.00 | 66 | 1011.4 |
| 20260504181026 | 20 | 210 | 4.8 | 8.0 | 0.00 | 0.00 | 0.00 | 65 | 1011.6 |
| 20260504180553 | 20 | 230 | 3.2 | 8.0 | 0.00 | 0.00 | 0.00 | 64 | 1011.5 |
| 20260504180049 | 20 | 191 | 3.2 | 6.4 | 0.00 | 0.00 | 0.00 | 65 | 1011.6 |
| 20260504175540 | 20 | 250 | 3.2 | 6.4 | 0.00 | 0.00 | 0.00 | 66 | 1011.7 |
| 20260504175049 | 20 | 233 | 1.6 | 6.4 | 0.00 | 0.00 | 0.00 | 68 | 1011.6 |
| 20260504174528 | 20 | 96 | 4.8 | 6.4 | 0.00 | 0.00 | 0.00 | 66 | 1011.6 |
| 20260504174053 | 20 | 248 | 1.6 | 6.4 | 0.00 | 0.00 | 0.00 | 67 | 1011.6 |
| 20260504173540 | 20 | 136 | 1.6 | 6.4 | 0.00 | 0.00 | 0.00 | 68 | 1011.4 |
| 20260504173048 | 19 | 245 | 1.6 | 8.0 | 0.00 | 0.00 | 0.00 | 70 | 1011.4 |
| 20260504172528 | 19 | 246 | 4.8 | 8.0 | 0.00 | 0.00 | 0.00 | 66 | 1011.4 |
| 20260504172036 | 19 | 192 | 1.6 | 8.0 | 0.00 | 0.00 | 0.00 | 69 | 1011.4 |
| 20260504171525 | 18 | 134 | 1.6 | 8.0 | 0.00 | 0.00 | 0.00 | 68 | 1011.4 |
| 20260504171024 | 18 | 73 | 3.2 | 9.7 | 0.00 | 0.00 | 0.00 | 68 | 1011.4 |
| 20260504170531 | 18 | 149 | 4.8 | 9.7 | 0.00 | 0.00 | 0.00 | 68 | 1011.4 |
| 20260504151058 | 15 | 60 | 3.2 | 4.8 | 0.00 | 0.00 | 0.00 | 84 | 1011.2 |
| 20260504150537 | 15 | 58 | 3.2 | 4.8 | 0.00 | 0.00 | 0.00 | 84 | 1011.3 |
| 20260504141032 | 12 | 48 | 0.0 | 0.0 | 0.00 | 0.00 | 0.00 | 90 | 1010.7 |
| 20260504140540 | 12 | 60 | 0.0 | 0.0 | 0.00 | 0.00 | 0.00 | 89 | 1010.7 |
| 20260504140133 | 13 | 60 | 0.0 | 0.0 | 0.00 | 0.00 | 0.00 | 91 | 1010.6 |
| 20260504130557 | 10 | 61 | 0.0 | 1.6 | 0.00 | 0.00 | 0.00 | 92 | 1010.1 |
| 20260504120105 | 11 | 78 | 0.0 | 0.0 | 0.00 | 0.00 | 0.00 | 88 | 1010.0 |
| 20260504110532 | 11 | 78 | 0.0 | 0.0 | 0.00 | 0.00 | 0.00 | 83 | 1010.2 |
| 20260504100534 | 12 | 78 | 0.0 | 0.0 | 0.00 | 0.00 | 0.00 | 79 | 1010.3 |
| 20260504081529 | 12 | 84 | 0.0 | 0.0 | 0.00 | 0.00 | 0.00 | 81 | 1010.4 |
| 20260504081028 | 13 | 84 | 0.0 | 0.0 | 0.00 | 0.00 | 0.00 | 80 | 1010.3 |
| 20260504080606 | 13 | 84 | 0.0 | 0.0 | 0.00 | 0.00 | 0.00 | 79 | 1010.3 |
| 20260504080104 | 13 | 84 | 0.0 | 0.0 | 0.00 | 0.00 | 0.00 | 78 | 1010.3 |
| 20260504050527 | 18 | 237 | 0.0 | 4.8 | 0.00 | 0.00 | 0.00 | 56 | 1010.3 |
| 20260504045539 | 19 | 293 | 1.6 | 8.0 | 0.00 | 0.00 | 0.00 | 52 | 1010.4 |
| 20260504045047 | 19 | 300 | 1.6 | 8.0 | 0.00 | 0.00 | 0.00 | 53 | 1010.3 |
| 20260504044526 | 19 | 296 | 3.2 | 6.4 | 0.00 | 0.00 | 0.00 | 54 | 1010.3 |
| 20260504044035 | 18 | 305 | 3.2 | 6.4 | 0.00 | 0.00 | 0.00 | 54 | 1010.3 |
| 20260504043544 | 18 | 328 | 1.6 | 6.4 | 0.00 | 0.00 | 0.00 | 56 | 1010.3 |
| 20260504043043 | 18 | 288 | 3.2 | 4.8 | 0.00 | 0.00 | 0.00 | 56 | 1010.3 |
| 20260504042531 | 18 | 263 | 1.6 | 3.2 | 0.00 | 0.00 | 0.00 | 57 | 1010.3 |
| 20260504042039 | 18 | 271 | 1.6 | 4.8 | 0.00 | 0.00 | 0.00 | 56 | 1010.3 |
| 20260504041548 | 18 | 283 | 3.2 | 4.8 | 0.00 | 0.00 | 0.00 | 57 | 1010.3 |
| 20260504041029 | 19 | 243 | 1.6 | 6.4 | 0.00 | 0.00 | 0.00 | 57 | 1010.2 |
| 20260504040537 | 19 | 307 | 3.2 | 6.4 | 0.00 | 0.00 | 0.00 | 56 | 1010.3 |